| time (UTC) | temp C | wind direction | speed KPH | gust KPH | rain 1hr cm | rain 24hr cm | rain mn cm | humidity % | barometer mb |
| 20260506223029 | 26 | 273 | 1.6 | 8.0 | 0.00 | 0.00 | 0.00 | 45 | 1017.6 |
| 20260506222510 | 26 | 269 | 3.2 | 8.0 | 0.00 | 0.00 | 0.00 | 46 | 1017.7 |
| 20260506222003 | 26 | 153 | 3.2 | 9.7 | 0.00 | 0.00 | 0.00 | 45 | 1017.7 |
| 20260506221508 | 26 | 90 | 3.2 | 9.7 | 0.00 | 0.00 | 0.00 | 45 | 1017.8 |
| 20260506221004 | 26 | 348 | 1.6 | 6.4 | 0.00 | 0.00 | 0.00 | 46 | 1017.8 |
| 20260506220504 | 26 | 349 | 1.6 | 6.4 | 0.00 | 0.00 | 0.00 | 46 | 1017.9 |
| 20260506220012 | 26 | 340 | 0.0 | 11.3 | 0.00 | 0.00 | 0.00 | 47 | 1018.0 |
| 20260506215504 | 26 | 359 | 3.2 | 11.3 | 0.00 | 0.00 | 0.00 | 46 | 1018.1 |
| 20260506215006 | 26 | 283 | 1.6 | 8.0 | 0.00 | 0.00 | 0.00 | 45 | 1018.1 |
| 20260506214516 | 26 | 14 | 1.6 | 6.4 | 0.00 | 0.00 | 0.00 | 45 | 1018.2 |
| 20260506214004 | 26 | 157 | 1.6 | 6.4 | 0.00 | 0.00 | 0.00 | 47 | 1018.3 |
| 20260506213513 | 25 | 120 | 1.6 | 14.5 | 0.00 | 0.00 | 0.00 | 48 | 1018.4 |
| 20260506213018 | 25 | 305 | 4.8 | 14.5 | 0.00 | 0.00 | 0.00 | 47 | 1018.5 |
| 20260506212508 | 25 | 352 | 3.2 | 8.0 | 0.00 | 0.00 | 0.00 | 47 | 1018.5 |
| 20260506212014 | 26 | 316 | 3.2 | 6.4 | 0.00 | 0.00 | 0.00 | 48 | 1018.5 |
| 20260506211530 | 25 | 352 | 1.6 | 11.3 | 0.00 | 0.00 | 0.00 | 47 | 1018.5 |
| 20260506211007 | 25 | 205 | 4.8 | 11.3 | 0.00 | 0.00 | 0.00 | 47 | 1018.5 |
| 20260506210507 | 25 | 297 | 1.6 | 6.4 | 0.00 | 0.00 | 0.00 | 49 | 1018.5 |
| 20260506210008 | 25 | 255 | 1.6 | 6.4 | 0.00 | 0.00 | 0.00 | 48 | 1018.5 |
| 20260506205504 | 25 | 137 | 1.6 | 6.4 | 0.00 | 0.00 | 0.00 | 47 | 1018.6 |
| 20260506205003 | 25 | 285 | 3.2 | 6.4 | 0.00 | 0.00 | 0.00 | 49 | 1018.6 |
| 20260506204512 | 25 | 353 | 1.6 | 8.0 | 0.00 | 0.00 | 0.00 | 48 | 1018.7 |
| 20260506204007 | 25 | 123 | 3.2 | 8.0 | 0.00 | 0.00 | 0.00 | 48 | 1018.7 |
| 20260506203509 | 25 | 127 | 1.6 | 6.4 | 0.00 | 0.00 | 0.00 | 49 | 1018.8 |
| 20260506203016 | 24 | 263 | 3.2 | 6.4 | 0.00 | 0.00 | 0.00 | 50 | 1018.8 |
| 20260506202508 | 24 | 140 | 3.2 | 6.4 | 0.00 | 0.00 | 0.00 | 49 | 1018.8 |
| 20260506202007 | 24 | 133 | 1.6 | 8.0 | 0.00 | 0.00 | 0.00 | 50 | 1018.9 |
| 20260506201523 | 24 | 326 | 3.2 | 8.0 | 0.00 | 0.00 | 0.00 | 50 | 1019.1 |
| 20260506201007 | 23 | 325 | 1.6 | 9.7 | 0.00 | 0.00 | 0.00 | 51 | 1019.1 |
| 20260506200508 | 23 | 316 | 1.6 | 9.7 | 0.00 | 0.00 | 0.00 | 51 | 1019.1 |
| 20260506200025 | 23 | 326 | 1.6 | 4.8 | 0.00 | 0.00 | 0.00 | 52 | 1019.2 |
| 20260506195507 | 23 | 333 | 1.6 | 8.0 | 0.00 | 0.00 | 0.00 | 51 | 1019.2 |
| 20260506195005 | 23 | 307 | 3.2 | 8.0 | 0.00 | 0.00 | 0.00 | 50 | 1019.3 |
| 20260506194509 | 23 | 84 | 1.6 | 9.7 | 0.00 | 0.00 | 0.00 | 51 | 1019.3 |
| 20260506194008 | 23 | 135 | 1.6 | 9.7 | 0.00 | 0.00 | 0.00 | 53 | 1019.4 |
| 20260506193504 | 23 | 139 | 3.2 | 11.3 | 0.00 | 0.00 | 0.00 | 51 | 1019.5 |
| 20260506193021 | 23 | 300 | 1.6 | 11.3 | 0.00 | 0.00 | 0.00 | 53 | 1019.5 |
| 20260506192504 | 23 | 150 | 3.2 | 6.4 | 0.00 | 0.00 | 0.00 | 52 | 1019.6 |
| 20260506192010 | 23 | 135 | 0.0 | 6.4 | 0.00 | 0.00 | 0.00 | 53 | 1019.5 |
| 20260506191518 | 22 | 8 | 1.6 | 6.4 | 0.00 | 0.00 | 0.00 | 54 | 1019.5 |
| 20260506191010 | 23 | 14 | 1.6 | 6.4 | 0.00 | 0.00 | 0.00 | 53 | 1019.6 |
| 20260506190509 | 22 | 151 | 1.6 | 8.0 | 0.00 | 0.00 | 0.00 | 54 | 1019.6 |
| 20260506190030 | 22 | 170 | 1.6 | 11.3 | 0.00 | 0.00 | 0.00 | 54 | 1019.7 |
| 20260506185512 | 22 | 316 | 4.8 | 11.3 | 0.00 | 0.00 | 0.00 | 54 | 1019.7 |
| 20260506185010 | 21 | 129 | 1.6 | 8.0 | 0.00 | 0.00 | 0.00 | 55 | 1019.7 |
| 20260506184536 | 21 | 351 | 3.2 | 8.0 | 0.00 | 0.00 | 0.00 | 56 | 1019.7 |
| 20260506184008 | 21 | 359 | 3.2 | 8.0 | 0.00 | 0.00 | 0.00 | 55 | 1019.7 |
| 20260506183504 | 21 | 321 | 3.2 | 8.0 | 0.00 | 0.00 | 0.00 | 54 | 1019.8 |
| 20260506183013 | 21 | 189 | 3.2 | 9.7 | 0.00 | 0.00 | 0.00 | 55 | 1019.8 |
| 20260506182508 | 21 | 335 | 1.6 | 9.7 | 0.00 | 0.00 | 0.00 | 55 | 1019.9 |
| 20260506182006 | 21 | 316 | 0.0 | 4.8 | 0.00 | 0.00 | 0.00 | 54 | 1019.9 |
| 20260506181527 | 21 | 183 | 1.6 | 8.0 | 0.00 | 0.00 | 0.00 | 57 | 1020.0 |
| 20260506181006 | 21 | 98 | 1.6 | 8.0 | 0.00 | 0.00 | 0.00 | 57 | 1020.0 |
| 20260506180508 | 21 | 278 | 3.2 | 6.4 | 0.00 | 0.00 | 0.00 | 57 | 1019.9 |
| 20260506180025 | 21 | 143 | 1.6 | 4.8 | 0.00 | 0.00 | 0.00 | 56 | 1019.9 |
| 20260506175511 | 21 | 131 | 1.6 | 4.8 | 0.00 | 0.00 | 0.00 | 57 | 1020.0 |
| 20260506175003 | 20 | 7 | 1.6 | 6.4 | 0.00 | 0.00 | 0.00 | 59 | 1020.0 |
| 20260506174508 | 20 | 20 | 1.6 | 6.4 | 0.00 | 0.00 | 0.00 | 58 | 1020.0 |
| 20260506174003 | 20 | 351 | 1.6 | 11.3 | 0.00 | 0.00 | 0.00 | 59 | 1020.0 |
| 20260506173506 | 20 | 13 | 3.2 | 11.3 | 0.00 | 0.00 | 0.00 | 60 | 1020.0 |
| 20260506173012 | 20 | 317 | 3.2 | 6.4 | 0.00 | 0.00 | 0.00 | 58 | 1020.1 |
| 20260506172504 | 20 | 339 | 1.6 | 6.4 | 0.00 | 0.00 | 0.00 | 58 | 1020.0 |
| 20260506172004 | 20 | 212 | 1.6 | 3.2 | 0.00 | 0.00 | 0.00 | 59 | 1020.1 |
| 20260506171516 | 20 | 356 | 1.6 | 3.2 | 0.00 | 0.00 | 0.00 | 59 | 1020.1 |
| 20260506171008 | 20 | 314 | 0.0 | 8.0 | 0.00 | 0.00 | 0.00 | 60 | 1020.2 |
| 20260506170507 | 19 | 219 | 1.6 | 8.0 | 0.00 | 0.00 | 0.00 | 62 | 1020.2 |
| 20260506170027 | 19 | 257 | 0.0 | 4.8 | 0.00 | 0.00 | 0.00 | 61 | 1020.2 |
| 20260506165508 | 19 | 312 | 0.0 | 3.2 | 0.00 | 0.00 | 0.00 | 61 | 1020.3 |
| 20260506165008 | 18 | 285 | 0.0 | 4.8 | 0.00 | 0.00 | 0.00 | 61 | 1020.2 |
| 20260506164541 | 18 | 174 | 1.6 | 4.8 | 0.00 | 0.00 | 0.00 | 62 | 1020.2 |
| 20260506164007 | 18 | 250 | 0.0 | 4.8 | 0.00 | 0.00 | 0.00 | 62 | 1020.3 |
| 20260506163509 | 18 | 145 | 0.0 | 4.8 | 0.00 | 0.00 | 0.00 | 63 | 1020.2 |
| 20260506163013 | 18 | 8 | 1.6 | 3.2 | 0.00 | 0.00 | 0.00 | 63 | 1020.3 |
| 20260506162508 | 18 | 296 | 1.6 | 3.2 | 0.00 | 0.00 | 0.00 | 63 | 1020.4 |
| 20260506162007 | 18 | 352 | 0.0 | 3.2 | 0.00 | 0.00 | 0.00 | 64 | 1020.3 |
| 20260506161512 | 17 | 152 | 0.0 | 4.8 | 0.00 | 0.00 | 0.00 | 66 | 1020.4 |
| 20260506161003 | 17 | 158 | 0.0 | 4.8 | 0.00 | 0.00 | 0.00 | 67 | 1020.5 |
| 20260506160504 | 17 | 300 | 0.0 | 4.8 | 0.00 | 0.00 | 0.00 | 68 | 1020.5 |
| 20260506160019 | 17 | 352 | 0.0 | 6.4 | 0.00 | 0.00 | 0.00 | 68 | 1020.5 |
| 20260506155507 | 17 | 299 | 0.0 | 6.4 | 0.00 | 0.00 | 0.00 | 67 | 1020.5 |
| 20260506155006 | 17 | 240 | 0.0 | 3.2 | 0.00 | 0.00 | 0.00 | 68 | 1020.5 |
| 20260506154524 | 16 | 259 | 0.0 | 3.2 | 0.00 | 0.00 | 0.00 | 69 | 1020.4 |
| 20260506154008 | 16 | 252 | 0.0 | 3.2 | 0.00 | 0.00 | 0.00 | 69 | 1020.5 |
| 20260506153507 | 16 | 173 | 0.0 | 3.2 | 0.00 | 0.00 | 0.00 | 70 | 1020.4 |
| 20260506153026 | 16 | 260 | 0.0 | 1.6 | 0.00 | 0.00 | 0.00 | 70 | 1020.5 |
| 20260506152509 | 15 | 214 | 0.0 | 0.0 | 0.00 | 0.00 | 0.00 | 72 | 1020.4 |
| 20260506152011 | 15 | 203 | 0.0 | 0.0 | 0.00 | 0.00 | 0.00 | 74 | 1020.4 |
| 20260506151514 | 14 | 203 | 0.0 | 0.0 | 0.00 | 0.00 | 0.00 | 76 | 1020.4 |
| 20260506151003 | 13 | 203 | 0.0 | 0.0 | 0.00 | 0.00 | 0.00 | 79 | 1020.4 |
| 20260506150504 | 12 | 203 | 0.0 | 0.0 | 0.00 | 0.00 | 0.00 | 84 | 1020.4 |
| 20260506150014 | 11 | 203 | 0.0 | 0.0 | 0.00 | 0.00 | 0.00 | 85 | 1020.5 |
| 20260506145505 | 11 | 203 | 0.0 | 0.0 | 0.00 | 0.00 | 0.00 | 86 | 1020.6 |
| 20260506145008 | 11 | 203 | 0.0 | 0.0 | 0.00 | 0.00 | 0.00 | 88 | 1020.8 |
| 20260506144526 | 11 | 203 | 0.0 | 0.0 | 0.00 | 0.00 | 0.00 | 88 | 1020.8 |
| 20260506144008 | 10 | 203 | 0.0 | 0.0 | 0.00 | 0.00 | 0.00 | 89 | 1020.8 |
| 20260506143508 | 10 | 203 | 0.0 | 0.0 | 0.00 | 0.00 | 0.00 | 89 | 1020.7 |
| 20260506143025 | 10 | 203 | 0.0 | 0.0 | 0.00 | 0.00 | 0.00 | 90 | 1020.8 |
| 20260506142511 | 10 | 203 | 0.0 | 0.0 | 0.00 | 0.00 | 0.00 | 90 | 1020.7 |
| 20260506142007 | 10 | 203 | 0.0 | 0.0 | 0.00 | 0.00 | 0.00 | 90 | 1020.4 |
| 20260506141530 | 10 | 203 | 0.0 | 0.0 | 0.00 | 0.00 | 0.00 | 90 | 1020.6 |
| 20260506141007 | 10 | 203 | 0.0 | 0.0 | 0.00 | 0.00 | 0.00 | 90 | 1020.6 |
| 20260506140507 | 9 | 203 | 0.0 | 0.0 | 0.00 | 0.00 | 0.00 | 89 | 1020.5 |
| 20260506140012 | 9 | 203 | 0.0 | 0.0 | 0.00 | 0.00 | 0.00 | 89 | 1020.4 |
| 20260506135503 | 9 | 203 | 0.0 | 0.0 | 0.00 | 0.00 | 0.00 | 89 | 1020.3 |
| 20260506135008 | 9 | 203 | 0.0 | 0.0 | 0.00 | 0.00 | 0.00 | 89 | 1020.2 |
| 20260506134516 | 9 | 203 | 0.0 | 0.0 | 0.00 | 0.00 | 0.00 | 89 | 1020.2 |
| 20260506134009 | 9 | 203 | 0.0 | 0.0 | 0.00 | 0.00 | 0.00 | 89 | 1020.2 |
| 20260506133509 | 9 | 203 | 0.0 | 0.0 | 0.00 | 0.00 | 0.00 | 89 | 1020.2 |
| 20260506133020 | 9 | 203 | 0.0 | 0.0 | 0.00 | 0.00 | 0.00 | 89 | 1020.1 |
| 20260506132506 | 9 | 203 | 0.0 | 0.0 | 0.00 | 0.00 | 0.00 | 89 | 1020.0 |
| 20260506132007 | 9 | 203 | 0.0 | 0.0 | 0.00 | 0.00 | 0.00 | 88 | 1020.0 |
| 20260506131525 | 9 | 203 | 0.0 | 0.0 | 0.00 | 0.00 | 0.00 | 88 | 1019.9 |
| 20260506131008 | 9 | 203 | 0.0 | 0.0 | 0.00 | 0.00 | 0.00 | 88 | 1020.0 |
| 20260506130509 | 9 | 203 | 0.0 | 0.0 | 0.00 | 0.00 | 0.00 | 88 | 1020.0 |
| 20260506130026 | 9 | 203 | 0.0 | 0.0 | 0.00 | 0.00 | 0.00 | 88 | 1019.9 |
| 20260506125509 | 9 | 203 | 0.0 | 0.0 | 0.00 | 0.00 | 0.00 | 88 | 1019.9 |
| 20260506125009 | 9 | 203 | 0.0 | 0.0 | 0.00 | 0.00 | 0.00 | 88 | 1019.8 |
| 20260506124514 | 9 | 203 | 0.0 | 0.0 | 0.00 | 0.00 | 0.00 | 87 | 1019.8 |
| 20260506124004 | 9 | 203 | 0.0 | 0.0 | 0.00 | 0.00 | 0.00 | 88 | 1019.7 |
| 20260506123504 | 9 | 203 | 0.0 | 0.0 | 0.00 | 0.00 | 0.00 | 88 | 1019.7 |
| 20260506123018 | 9 | 203 | 0.0 | 0.0 | 0.00 | 0.00 | 0.00 | 87 | 1019.7 |
| 20260506122505 | 10 | 203 | 0.0 | 0.0 | 0.00 | 0.00 | 0.00 | 87 | 1019.8 |
| 20260506122010 | 10 | 203 | 0.0 | 0.0 | 0.00 | 0.00 | 0.00 | 87 | 1019.7 |
| 20260506121520 | 10 | 203 | 0.0 | 0.0 | 0.00 | 0.00 | 0.00 | 87 | 1019.7 |
| 20260506121008 | 10 | 203 | 0.0 | 0.0 | 0.00 | 0.00 | 0.00 | 87 | 1019.7 |
| 20260506120506 | 10 | 203 | 0.0 | 0.0 | 0.00 | 0.00 | 0.00 | 86 | 1019.7 |
| 20260506120047 | 10 | 203 | 0.0 | 0.0 | 0.00 | 0.00 | 0.00 | 86 | 1019.7 |
| 20260506115508 | 10 | 203 | 0.0 | 0.0 | 0.00 | 0.00 | 0.00 | 86 | 1019.6 |
| 20260506115009 | 10 | 203 | 0.0 | 0.0 | 0.00 | 0.00 | 0.00 | 86 | 1019.5 |
| 20260506114532 | 10 | 203 | 0.0 | 0.0 | 0.00 | 0.00 | 0.00 | 86 | 1019.5 |
| 20260506114012 | 10 | 203 | 0.0 | 0.0 | 0.00 | 0.00 | 0.00 | 85 | 1019.4 |
| 20260506113511 | 10 | 203 | 0.0 | 0.0 | 0.00 | 0.00 | 0.00 | 85 | 1019.4 |
| 20260506113028 | 10 | 203 | 0.0 | 0.0 | 0.00 | 0.00 | 0.00 | 85 | 1019.3 |
| 20260506112504 | 11 | 203 | 0.0 | 0.0 | 0.00 | 0.00 | 0.00 | 85 | 1019.3 |
| 20260506112007 | 11 | 203 | 0.0 | 0.0 | 0.00 | 0.00 | 0.00 | 85 | 1019.3 |
| 20260506111519 | 11 | 203 | 0.0 | 0.0 | 0.00 | 0.00 | 0.00 | 85 | 1019.3 |
| 20260506111006 | 11 | 203 | 0.0 | 0.0 | 0.00 | 0.00 | 0.00 | 85 | 1019.3 |
| 20260506110507 | 11 | 203 | 0.0 | 0.0 | 0.00 | 0.00 | 0.00 | 85 | 1019.3 |
| 20260506110026 | 11 | 203 | 0.0 | 0.0 | 0.00 | 0.00 | 0.00 | 85 | 1019.3 |
| 20260506105506 | 11 | 203 | 0.0 | 0.0 | 0.00 | 0.00 | 0.00 | 84 | 1019.3 |
| 20260506105007 | 11 | 203 | 0.0 | 0.0 | 0.00 | 0.00 | 0.00 | 84 | 1019.3 |
| 20260506104537 | 11 | 203 | 0.0 | 0.0 | 0.00 | 0.00 | 0.00 | 84 | 1019.3 |
| 20260506104011 | 11 | 203 | 0.0 | 0.0 | 0.00 | 0.00 | 0.00 | 84 | 1019.3 |
| 20260506103508 | 11 | 203 | 0.0 | 0.0 | 0.00 | 0.00 | 0.00 | 84 | 1019.2 |
| 20260506103039 | 11 | 203 | 0.0 | 0.0 | 0.00 | 0.00 | 0.00 | 83 | 1019.3 |
| 20260506102511 | 11 | 203 | 0.0 | 0.0 | 0.00 | 0.00 | 0.00 | 83 | 1019.2 |
| 20260506102008 | 11 | 203 | 0.0 | 0.0 | 0.00 | 0.00 | 0.00 | 83 | 1019.1 |
| 20260506101528 | 11 | 203 | 0.0 | 0.0 | 0.00 | 0.00 | 0.00 | 83 | 1019.1 |
| 20260506101004 | 11 | 203 | 0.0 | 0.0 | 0.00 | 0.00 | 0.00 | 83 | 1019.1 |
| 20260506100511 | 11 | 203 | 0.0 | 0.0 | 0.00 | 0.00 | 0.00 | 83 | 1019.1 |
| 20260506095502 | 12 | 203 | 0.0 | 0.0 | 0.00 | 0.00 | 0.00 | 82 | 1019.0 |
| 20260506095004 | 12 | 203 | 0.0 | 0.0 | 0.00 | 0.00 | 0.00 | 82 | 1019.1 |
| 20260506094503 | 12 | 203 | 0.0 | 0.0 | 0.00 | 0.00 | 0.00 | 82 | 1019.1 |
| 20260506094003 | 12 | 203 | 0.0 | 0.0 | 0.00 | 0.00 | 0.00 | 82 | 1019.1 |
| 20260506093502 | 12 | 203 | 0.0 | 0.0 | 0.00 | 0.00 | 0.00 | 82 | 1019.1 |
| 20260506093018 | 12 | 203 | 0.0 | 0.0 | 0.00 | 0.00 | 0.00 | 82 | 1019.0 |
| 20260506092503 | 12 | 203 | 0.0 | 0.0 | 0.00 | 0.00 | 0.00 | 82 | 1019.1 |
| 20260506092003 | 12 | 203 | 0.0 | 0.0 | 0.00 | 0.00 | 0.00 | 82 | 1019.1 |
| 20260506091516 | 12 | 203 | 0.0 | 0.0 | 0.00 | 0.00 | 0.00 | 82 | 1019.2 |
| 20260506091016 | 12 | 203 | 0.0 | 0.0 | 0.00 | 0.00 | 0.00 | 82 | 1019.2 |
| 20260506090506 | 12 | 203 | 0.0 | 0.0 | 0.00 | 0.00 | 0.00 | 82 | 1019.3 |
| 20260506090019 | 12 | 203 | 0.0 | 0.0 | 0.00 | 0.00 | 0.00 | 81 | 1019.3 |
| 20260506085507 | 12 | 203 | 0.0 | 0.0 | 0.00 | 0.00 | 0.00 | 81 | 1019.3 |
| 20260506084554 | 12 | 203 | 0.0 | 0.0 | 0.00 | 0.00 | 0.00 | 81 | 1019.1 |
| 20260506084012 | 12 | 203 | 0.0 | 0.0 | 0.00 | 0.00 | 0.00 | 81 | 1019.0 |
| 20260506083503 | 12 | 203 | 0.0 | 0.0 | 0.00 | 0.00 | 0.00 | 81 | 1019.0 |
| 20260506083007 | 12 | 204 | 0.0 | 0.0 | 0.00 | 0.00 | 0.00 | 80 | 1019.0 |
| 20260506082502 | 12 | 203 | 0.0 | 0.0 | 0.00 | 0.00 | 0.00 | 80 | 1019.0 |
| 20260506082002 | 12 | 203 | 0.0 | 0.0 | 0.00 | 0.00 | 0.00 | 80 | 1019.1 |
| 20260506081008 | 12 | 203 | 0.0 | 0.0 | 0.00 | 0.00 | 0.00 | 80 | 1019.1 |
| 20260506080504 | 12 | 203 | 0.0 | 0.0 | 0.00 | 0.00 | 0.00 | 80 | 1019.1 |
| 20260506073508 | 12 | 203 | 0.0 | 0.0 | 0.00 | 0.00 | 0.00 | 79 | 1018.7 |
| 20260506073023 | 12 | 203 | 0.0 | 0.0 | 0.00 | 0.00 | 0.00 | 79 | 1018.6 |
| 20260506072508 | 12 | 203 | 0.0 | 0.0 | 0.00 | 0.00 | 0.00 | 79 | 1018.6 |
| 20260506072004 | 13 | 203 | 0.0 | 0.0 | 0.00 | 0.00 | 0.00 | 79 | 1018.6 |
| 20260506071507 | 13 | 203 | 0.0 | 0.0 | 0.00 | 0.00 | 0.00 | 79 | 1018.5 |
| 20260506071003 | 13 | 203 | 0.0 | 0.0 | 0.00 | 0.00 | 0.00 | 79 | 1018.6 |
| 20260506070503 | 13 | 203 | 0.0 | 0.0 | 0.00 | 0.00 | 0.00 | 78 | 1018.5 |
| 20260506062507 | 13 | 203 | 0.0 | 0.0 | 0.00 | 0.00 | 0.00 | 77 | 1018.3 |
| 20260506062007 | 13 | 203 | 0.0 | 0.0 | 0.00 | 0.00 | 0.00 | 77 | 1018.1 |
| 20260506061523 | 13 | 203 | 0.0 | 0.0 | 0.00 | 0.00 | 0.00 | 77 | 1018.2 |
| 20260506061009 | 13 | 203 | 0.0 | 0.0 | 0.00 | 0.00 | 0.00 | 77 | 1018.1 |
| 20260506060504 | 13 | 203 | 0.0 | 0.0 | 0.00 | 0.00 | 0.00 | 77 | 1018.1 |
| 20260506051010 | 14 | 135 | 0.0 | 1.6 | 0.00 | 0.00 | 0.00 | 73 | 1017.8 |
| 20260506050508 | 14 | 135 | 0.0 | 1.6 | 0.00 | 0.00 | 0.00 | 73 | 1017.7 |
| 20260506045005 | 14 | 168 | 0.0 | 1.6 | 0.00 | 0.00 | 0.00 | 73 | 1017.6 |
| 20260506044508 | 14 | 161 | 0.0 | 0.0 | 0.00 | 0.00 | 0.00 | 73 | 1017.6 |
| 20260506044006 | 14 | 162 | 0.0 | 0.0 | 0.00 | 0.00 | 0.00 | 73 | 1017.5 |
| 20260506043508 | 15 | 151 | 0.0 | 1.6 | 0.00 | 0.00 | 0.00 | 73 | 1017.5 |
| 20260506043015 | 15 | 152 | 0.0 | 1.6 | 0.00 | 0.00 | 0.00 | 73 | 1017.4 |
| 20260506042504 | 15 | 154 | 0.0 | 1.6 | 0.00 | 0.00 | 0.00 | 73 | 1017.4 |
| 20260506042006 | 15 | 142 | 0.0 | 1.6 | 0.00 | 0.00 | 0.00 | 73 | 1017.3 |
| 20260506041519 | 15 | 154 | 0.0 | 0.0 | 0.00 | 0.00 | 0.00 | 73 | 1017.3 |
| 20260506041006 | 15 | 154 | 0.0 | 1.6 | 0.00 | 0.00 | 0.00 | 73 | 1017.2 |
| 20260506040509 | 15 | 154 | 0.0 | 1.6 | 0.00 | 0.00 | 0.00 | 73 | 1017.1 |
| 20260506040027 | 15 | 148 | 0.0 | 1.6 | 0.00 | 0.00 | 0.00 | 73 | 1017.2 |
| 20260506035509 | 15 | 122 | 0.0 | 1.6 | 0.00 | 0.00 | 0.00 | 73 | 1017.1 |
| 20260506035013 | 15 | 122 | 0.0 | 1.6 | 0.00 | 0.00 | 0.00 | 73 | 1017.1 |
| 20260506034526 | 15 | 210 | 0.0 | 1.6 | 0.00 | 0.00 | 0.00 | 73 | 1017.0 |
| 20260506034010 | 15 | 210 | 0.0 | 1.6 | 0.00 | 0.00 | 0.00 | 73 | 1016.9 |
| 20260506033507 | 15 | 27 | 0.0 | 3.2 | 0.00 | 0.00 | 0.00 | 73 | 1016.7 |
| 20260506033012 | 15 | 27 | 0.0 | 3.2 | 0.00 | 0.00 | 0.00 | 73 | 1016.7 |
| 20260506032505 | 15 | 229 | 0.0 | 4.8 | 0.00 | 0.00 | 0.00 | 73 | 1016.6 |
| 20260506032056 | 15 | 203 | 0.0 | 4.8 | 0.00 | 0.00 | 0.00 | 73 | 1016.5 |
| 20260506031505 | 15 | 139 | 0.0 | 3.2 | 0.00 | 0.00 | 0.00 | 72 | 1016.4 |
| 20260506031003 | 15 | 111 | 0.0 | 3.2 | 0.00 | 0.00 | 0.00 | 72 | 1016.3 |
| 20260506030504 | 15 | 162 | 0.0 | 3.2 | 0.00 | 0.00 | 0.00 | 72 | 1016.2 |
| 20260506030005 | 15 | 160 | 1.6 | 3.2 | 0.00 | 0.00 | 0.00 | 72 | 1016.2 |
| 20260506025503 | 15 | 136 | 1.6 | 3.2 | 0.00 | 0.00 | 0.00 | 71 | 1016.2 |
| 20260506025008 | 16 | 159 | 0.0 | 3.2 | 0.00 | 0.00 | 0.00 | 69 | 1016.2 |
| 20260506024503 | 16 | 297 | 0.0 | 1.6 | 0.00 | 0.00 | 0.00 | 67 | 1016.1 |
| 20260506024004 | 16 | 297 | 0.0 | 1.6 | 0.00 | 0.00 | 0.00 | 67 | 1016.0 |
| 20260506023504 | 16 | 297 | 0.0 | 1.6 | 0.00 | 0.00 | 0.00 | 67 | 1016.1 |
| 20260506023006 | 16 | 297 | 0.0 | 1.6 | 0.00 | 0.00 | 0.00 | 67 | 1016.0 |
| 20260506022503 | 16 | 260 | 0.0 | 1.6 | 0.00 | 0.00 | 0.00 | 67 | 1016.0 |
| 20260506022003 | 16 | 315 | 0.0 | 1.6 | 0.00 | 0.00 | 0.00 | 67 | 1015.9 |
| 20260506021504 | 16 | 336 | 0.0 | 1.6 | 0.00 | 0.00 | 0.00 | 67 | 1016.0 |
| 20260506021009 | 16 | 343 | 0.0 | 1.6 | 0.00 | 0.00 | 0.00 | 67 | 1016.1 |
| 20260506020504 | 16 | 343 | 0.0 | 1.6 | 0.00 | 0.00 | 0.00 | 67 | 1016.1 |
| 20260506020003 | 16 | 110 | 0.0 | 1.6 | 0.00 | 0.00 | 0.00 | 68 | 1016.1 |
| 20260506015504 | 16 | 134 | 0.0 | 1.6 | 0.00 | 0.00 | 0.00 | 68 | 1016.1 |
| 20260506015004 | 16 | 187 | 0.0 | 1.6 | 0.00 | 0.00 | 0.00 | 69 | 1016.2 |
| 20260506014505 | 16 | 187 | 0.0 | 0.0 | 0.00 | 0.00 | 0.00 | 69 | 1016.2 |
| 20260506014004 | 16 | 187 | 0.0 | 0.0 | 0.00 | 0.00 | 0.00 | 69 | 1016.2 |
| 20260506013505 | 16 | 187 | 0.0 | 0.0 | 0.00 | 0.00 | 0.00 | 68 | 1016.2 |
| 20260506013007 | 16 | 185 | 0.0 | 3.2 | 0.00 | 0.00 | 0.00 | 69 | 1016.2 |
| 20260506012504 | 16 | 185 | 0.0 | 3.2 | 0.00 | 0.00 | 0.00 | 69 | 1016.2 |
| 20260506012004 | 16 | 45 | 0.0 | 3.2 | 0.00 | 0.00 | 0.00 | 68 | 1016.0 |
| 20260506011506 | 16 | 112 | 0.0 | 1.6 | 0.00 | 0.00 | 0.00 | 67 | 1016.1 |
| 20260506011004 | 16 | 109 | 0.0 | 1.6 | 0.00 | 0.00 | 0.00 | 66 | 1016.1 |
| 20260506010507 | 16 | 139 | 0.0 | 3.2 | 0.00 | 0.00 | 0.00 | 65 | 1016.1 |
| 20260506010007 | 16 | 300 | 0.0 | 3.2 | 0.00 | 0.00 | 0.00 | 65 | 1016.0 |
| 20260506005504 | 16 | 224 | 0.0 | 4.8 | 0.00 | 0.00 | 0.00 | 65 | 1016.0 |
| 20260506005004 | 16 | 342 | 0.0 | 4.8 | 0.00 | 0.00 | 0.00 | 65 | 1015.9 |
| 20260506004511 | 16 | 320 | 0.0 | 3.2 | 0.00 | 0.00 | 0.00 | 65 | 1015.9 |
| 20260506004004 | 16 | 289 | 0.0 | 3.2 | 0.00 | 0.00 | 0.00 | 65 | 1015.9 |
| 20260506003507 | 16 | 205 | 0.0 | 3.2 | 0.00 | 0.00 | 0.00 | 65 | 1015.9 |
| 20260506003007 | 16 | 274 | 0.0 | 3.2 | 0.00 | 0.00 | 0.00 | 65 | 1015.8 |
| 20260506002504 | 16 | 294 | 0.0 | 3.2 | 0.00 | 0.00 | 0.00 | 64 | 1015.8 |
| 20260506002004 | 17 | 264 | 0.0 | 3.2 | 0.00 | 0.00 | 0.00 | 65 | 1015.8 |
| 20260506001509 | 17 | 338 | 0.0 | 3.2 | 0.00 | 0.00 | 0.00 | 64 | 1015.8 |
| 20260506001004 | 17 | 139 | 0.0 | 3.2 | 0.00 | 0.00 | 0.00 | 64 | 1015.7 |
| 20260506000504 | 17 | 150 | 0.0 | 3.2 | 0.00 | 0.00 | 0.00 | 63 | 1015.6 |
| 20260506000009 | 17 | 313 | 0.0 | 3.2 | 0.00 | 0.00 | 0.00 | 63 | 1015.6 |
| 20260505235505 | 17 | 254 | 0.0 | 1.6 | 0.00 | 0.00 | 0.00 | 64 | 1015.6 |
| 20260505235006 | 17 | 288 | 0.0 | 3.2 | 0.00 | 0.00 | 0.00 | 63 | 1015.7 |
| 20260505234508 | 17 | 290 | 0.0 | 3.2 | 0.00 | 0.00 | 0.00 | 63 | 1015.7 |
| 20260505234004 | 17 | 346 | 0.0 | 1.6 | 0.00 | 0.00 | 0.00 | 62 | 1015.7 |
| 20260505233508 | 17 | 200 | 0.0 | 3.2 | 0.00 | 0.00 | 0.00 | 64 | 1015.7 |
| 20260505233012 | 17 | 188 | 0.0 | 3.2 | 0.00 | 0.00 | 0.00 | 64 | 1015.7 |
| 20260505232504 | 17 | 291 | 1.6 | 4.8 | 0.00 | 0.00 | 0.00 | 64 | 1015.8 |
| 20260505232006 | 17 | 330 | 1.6 | 4.8 | 0.00 | 0.00 | 0.00 | 64 | 1015.7 |
| 20260505231518 | 17 | 311 | 1.6 | 4.8 | 0.00 | 0.00 | 0.00 | 64 | 1015.8 |
| 20260505231011 | 17 | 248 | 1.6 | 6.4 | 0.00 | 0.00 | 0.00 | 65 | 1015.8 |
| 20260505230502 | 16 | 263 | 1.6 | 8.0 | 0.00 | 0.00 | 0.00 | 65 | 1015.9 |
| 20260505230020 | 16 | 288 | 3.2 | 8.0 | 0.00 | 0.00 | 0.00 | 65 | 1015.8 |
| 20260505225504 | 16 | 323 | 1.6 | 9.7 | 0.00 | 0.00 | 0.00 | 66 | 1015.9 |
| 20260505225004 | 16 | 347 | 1.6 | 9.7 | 0.00 | 0.00 | 0.00 | 66 | 1015.9 |
| 20260505224515 | 16 | 317 | 4.8 | 9.7 | 0.00 | 0.00 | 0.00 | 65 | 1015.9 |
| 20260505224009 | 16 | 337 | 1.6 | 6.4 | 0.00 | 0.00 | 0.00 | 67 | 1015.9 |
| 20260505223505 | 16 | 303 | 1.6 | 8.0 | 0.00 | 0.00 | 0.00 | 67 | 1016.0 |